Weather History for Stampede Pass, WA

Change the Weather History Date:

Tuesday, October 11, 2011

  Actual Average Record
Temperature  
Mean Temperature 40 °F -  
Max Temperature 43 °F 47 °F 70 °F (2006)
Min Temperature 37 °F 36 °F 30 °F (1997)
Degree Days  
Heating Degree Days 26    
Moisture  
Dew Point 39 °F    
Average Humidity 98    
Maximum Humidity 100    
Minimum Humidity 92    
Precipitation  
Precipitation 1.28 in - - ()
Sea Level Pressure  
Sea Level Pressure 29.80 in    
Wind  
Wind Speed 5 mph (West)    
Max Wind Speed 20 mph    
Max Gust Speed 37 mph    
Visibility 3 miles    
Events Fog , Rain    
Averages and records for this station are not official NWS values.
T = Trace of Precipitation, MM = Missing Value Source: NWS Daily Summary

Daily Weather History Graph

Daily Weather History Graph

Search for Another Location

Airport:

Trip Planner

Search our weather history database for the weather conditions in past years. The results will help you decide how hot, cold, wet, or windy it might be!

Date:

Astronomy

Oct. 11, 2011 Rise Set
Actual Time 7:17 AM PDT 6:25 PM PDT
Civil Twilight 6:47 AM PDT 6:56 PM PDT
Nautical Twilight 6:11 AM PDT 7:31 PM PDT
Astronomical Twilight 5:36 AM PDT 8:07 PM PDT
Moon 5:55 PM PDT (10/11) 7:03 AM PDT (10/11)
Length of Visible Light 12h 09m
Length of Day
11h 07m
Full, 100% of the Moon is Illuminated
Oct 11
Full
Oct 11
Full
Oct 19
Last Quarter
Oct 26
New
Nov 2
First Quarter

Hourly Weather History & Observations

Time (PDT) Temp. Windchill Dew Point Humidity Pressure Visibility Wind Dir Wind Speed Gust Speed Precip Events Conditions
12:28 AM 42.8 °F - 41.0 °F 93% 29.61 in 6.0 mi Calm Calm - 0.03 in Rain Light Rain
12:40 AM 42.8 °F - 41.0 °F 93% 29.62 in 2.0 mi Calm Calm - 0.07 in Rain Rain
12:52 AM 42.8 °F - 41.0 °F 93% 29.62 in 1.8 mi Calm Calm - 0.11 in Rain Light Rain
12:56 AM 42.1 °F - 41.0 °F 96% 29.63 in 1.5 mi Calm Calm - 0.11 in Rain Light Rain
1:01 AM 42.8 °F - 41.0 °F 93% 29.63 in 0.8 mi Calm Calm - 0.01 in Rain Light Rain
1:09 AM 42.8 °F - 41.0 °F 93% 29.63 in 0.5 mi Calm Calm - 0.02 in Fog , Rain Light Rain
1:19 AM 42.8 °F - 41.0 °F 93% 29.63 in 1.5 mi Calm Calm - 0.02 in   Overcast
1:22 AM 42.8 °F - 41.0 °F 93% 29.62 in 3.0 mi Calm Calm - 0.02 in   Overcast
1:54 AM 42.1 °F - 41.0 °F 96% 29.62 in 8.0 mi Calm Calm - 0.02 in   Overcast
2:44 AM 42.8 °F - 41.0 °F 93% 29.61 in 5.0 mi Calm Calm - 0.02 in Rain Light Rain
2:50 AM 42.8 °F - 42.8 °F 100% 29.61 in 5.0 mi Calm Calm - 0.02 in Rain Light Rain
2:56 AM 42.1 °F - 42.1 °F 100% 29.61 in 4.0 mi Calm Calm - 0.03 in Rain Light Rain
3:08 AM 42.8 °F - 42.8 °F 100% 29.61 in 4.0 mi Calm Calm - 0.02 in Rain Light Rain
3:27 AM 42.8 °F - 42.8 °F 100% 29.61 in 1.8 mi Calm Calm - 0.03 in Rain Light Rain
3:31 AM 42.8 °F - 42.8 °F 100% 29.61 in 2.0 mi Calm Calm - 0.03 in   Overcast
3:34 AM 42.8 °F - 42.8 °F 100% 29.61 in 3.0 mi Calm Calm - 0.03 in   Overcast
3:46 AM 42.8 °F - 42.8 °F 100% 29.62 in 1.8 mi Calm Calm - 0.05 in Rain Light Rain
3:49 AM 42.8 °F - 42.8 °F 100% 29.62 in 0.8 mi Calm Calm - 0.05 in Rain Light Rain
3:56 AM 42.1 °F 40.2 °F 41.0 °F 96% 29.62 in 0.5 mi Variable 3.5 mph - 0.07 in Fog , Rain Rain
4:07 AM 41.0 °F - 41.0 °F 100% 29.61 in 0.5 mi Calm Calm - 0.03 in Fog , Rain Rain
4:11 AM 41.0 °F - 41.0 °F 100% 29.61 in 1.0 mi Calm Calm - 0.04 in Rain Rain
4:14 AM 41.0 °F - 41.0 °F 100% 29.62 in 2.5 mi Calm Calm - 0.05 in Rain Rain
4:18 AM 41.0 °F - 41.0 °F 100% 29.62 in 1.5 mi Calm Calm - 0.06 in Rain Light Rain
4:24 AM 41.0 °F - 41.0 °F 100% 29.61 in 1.0 mi Calm Calm - 0.07 in Rain Light Rain
4:28 AM 41.0 °F 38.0 °F 41.0 °F 100% 29.62 in 2.0 mi Variable 4.6 mph - 0.09 in Rain Light Rain
4:36 AM 41.0 °F 38.0 °F 41.0 °F 100% 29.61 in 1.5 mi Variable 4.6 mph - 0.10 in Rain Light Rain
4:47 AM 41.0 °F 39.0 °F 41.0 °F 100% 29.61 in 3.0 mi Variable 3.5 mph - 0.13 in Rain Light Rain
4:50 AM 41.0 °F 38.0 °F 41.0 °F 100% 29.62 in 4.0 mi Variable 4.6 mph - 0.14 in Rain Rain
4:56 AM 41.0 °F 39.0 °F 39.2 °F 93% 29.62 in 3.0 mi Variable 3.5 mph - N/A Rain Rain
5:00 AM 41.0 °F 38.0 °F 41.0 °F 100% 29.62 in 2.5 mi Variable 4.6 mph - 0.01 in Rain Rain
5:11 AM 41.0 °F - 39.2 °F 93% 29.63 in 1.8 mi Calm Calm - 0.06 in Rain Rain
5:13 AM 41.0 °F - 41.0 °F 100% 29.63 in 1.2 mi Calm Calm - 0.06 in Rain Rain
5:22 AM 41.0 °F 37.1 °F 41.0 °F 100% 29.63 in 0.5 mi WNW 5.8 mph - 0.09 in Fog , Rain Rain
5:29 AM 41.0 °F 35.8 °F 39.2 °F 93% 29.64 in 1.0 mi WNW 8.1 mph - 0.12 in Rain Rain
5:33 AM 41.0 °F 35.8 °F 39.2 °F 93% 29.64 in 1.5 mi WNW 8.1 mph - 0.14 in Rain Rain
5:36 AM 41.0 °F 38.0 °F 39.2 °F 93% 29.64 in 2.0 mi Variable 4.6 mph - 0.16 in Rain Rain
5:44 AM 39.2 °F 34.2 °F 39.2 °F 100% 29.64 in 3.0 mi Variable 6.9 mph - 0.19 in Rain Rain
5:50 AM 39.2 °F 32.5 °F 39.2 °F 100% 29.64 in 2.5 mi West 10.4 mph 18.4 mph 0.21 in Rain Light Rain
5:56 AM 39.9 °F 33.4 °F 39.9 °F 100% 29.64 in 2.0 mi WSW 10.4 mph 23.0 mph 0.23 in Rain Light Rain
6:09 AM 39.2 °F 33.6 °F 39.2 °F 100% 29.63 in 1.5 mi WSW 8.1 mph 19.6 mph 0.01 in Rain Light Rain
6:16 AM 39.2 °F 33.0 °F 39.2 °F 100% 29.63 in 1.2 mi West 9.2 mph - 0.02 in Rain Light Rain
6:27 AM 39.2 °F 32.0 °F 39.2 °F 100% 29.64 in 2.0 mi West 11.5 mph 25.3 mph 0.04 in Rain Light Rain
6:30 AM 39.2 °F 30.8 °F 39.2 °F 100% 29.64 in 5.0 mi West 15.0 mph 36.8 mph 0.04 in Rain Light Rain
6:40 AM 39.2 °F 33.6 °F 39.2 °F 100% 29.66 in 1.8 mi WSW 8.1 mph 26.5 mph 0.06 in Rain Rain
6:44 AM 39.2 °F 33.0 °F 39.2 °F 100% 29.65 in 0.8 mi WSW 9.2 mph 21.9 mph 0.09 in Rain Rain
6:54 AM 39.2 °F 32.0 °F 39.2 °F 100% 29.66 in 1.0 mi West 11.5 mph 28.8 mph 0.12 in Rain Light Rain
6:56 AM 39.0 °F 34.0 °F 39.0 °F 100% 29.68 in 1.5 mi Variable 6.9 mph 24.2 mph 0.12 in Rain Light Rain
7:02 AM 39.2 °F 34.2 °F 39.2 °F 100% 29.66 in 0.8 mi Variable 6.9 mph 20.7 mph 0.00 in Rain Light Rain
7:11 AM 39.2 °F 34.2 °F 39.2 °F 100% 29.66 in 0.5 mi Variable 6.9 mph - 0.00 in Fog Fog
7:20 AM 39.2 °F 32.5 °F 39.2 °F 100% 29.66 in 1.0 mi WSW 10.4 mph 21.9 mph 0.00 in Rain Light Rain
7:32 AM 39.2 °F 32.5 °F 39.2 °F 100% 29.67 in 0.8 mi West 10.4 mph 26.5 mph 0.01 in Rain Light Rain
7:39 AM 39.2 °F 32.5 °F 39.2 °F 100% 29.67 in 1.5 mi West 10.4 mph 26.5 mph 0.01 in Rain Light Rain
7:42 AM 39.2 °F 34.2 °F 39.2 °F 100% 29.67 in 2.5 mi Variable 6.9 mph 21.9 mph 0.01 in Rain Light Rain
7:47 AM 39.2 °F 32.5 °F 39.2 °F 100% 29.67 in 1.2 mi WSW 10.4 mph 20.7 mph 0.02 in Rain Light Rain
7:49 AM 39.2 °F 33.0 °F 39.2 °F 100% 29.68 in 0.8 mi West 9.2 mph 21.9 mph 0.02 in Rain Light Rain
7:56 AM 39.0 °F 33.4 °F 39.0 °F 100% 29.70 in 0.8 mi West 8.1 mph 21.9 mph 0.03 in Rain Light Rain
8:07 AM 39.2 °F 32.5 °F 39.2 °F 100% 29.70 in 1.0 mi West 10.4 mph 23.0 mph 0.00 in   Overcast
8:14 AM 39.2 °F 33.6 °F 39.2 °F 100% 29.70 in 1.2 mi WSW 8.1 mph 24.2 mph 0.01 in Rain Light Rain
8:19 AM 39.2 °F 35.0 °F 39.2 °F 100% 29.71 in 1.8 mi Variable 5.8 mph 24.2 mph 0.01 in Rain Light Rain
8:21 AM 39.2 °F 33.0 °F 39.2 °F 100% 29.71 in 1.2 mi WSW 9.2 mph 20.7 mph 0.01 in   Overcast
8:31 AM 37.4 °F 31.4 °F 37.4 °F 100% 29.71 in 1.5 mi West 8.1 mph 25.3 mph 0.02 in Rain Light Rain
8:40 AM 37.4 °F 32.1 °F 37.4 °F 100% 29.71 in 3.0 mi Variable 6.9 mph 26.5 mph 0.03 in Rain Light Rain
8:45 AM 37.4 °F 31.4 °F 37.4 °F 100% 29.71 in 1.8 mi WSW 8.1 mph - 0.03 in Rain Light Rain
8:50 AM 39.2 °F 34.2 °F 37.4 °F 93% 29.72 in 0.8 mi Variable 6.9 mph 20.7 mph 0.03 in Rain Light Rain
8:56 AM 39.0 °F 33.4 °F 39.0 °F 100% 29.74 in 1.0 mi WSW 8.1 mph 28.8 mph 0.04 in Rain Light Rain
9:05 AM 39.2 °F 34.2 °F 39.2 °F 100% 29.73 in 0.2 mi Variable 6.9 mph - 0.00 in Fog , Rain Light Rain
9:23 AM 39.2 °F 33.6 °F 39.2 °F 100% 29.74 in 0.8 mi West 8.1 mph 21.9 mph 0.01 in   Overcast
9:31 AM 39.2 °F 33.6 °F 39.2 °F 100% 29.74 in 1.5 mi WSW 8.1 mph - 0.01 in   Overcast
9:37 AM 39.2 °F 33.6 °F 39.2 °F 100% 29.75 in 4.0 mi West 8.1 mph 19.6 mph 0.01 in   Overcast
9:44 AM 39.2 °F 33.6 °F 39.2 °F 100% 29.75 in 2.0 mi West 8.1 mph - 0.01 in   Overcast
9:56 AM 39.9 °F 33.9 °F 39.0 °F 97% 29.77 in 8.0 mi West 9.2 mph - 0.01 in   Overcast
10:04 AM 39.2 °F 35.0 °F 39.2 °F 100% 29.76 in 1.2 mi Variable 5.8 mph 25.3 mph 0.00 in Rain Light Rain
10:08 AM 39.2 °F 35.0 °F 39.2 °F 100% 29.76 in 0.5 mi Variable 5.8 mph 18.4 mph 0.00 in Fog , Rain Light Rain
10:15 AM 39.2 °F 33.6 °F 39.2 °F 100% 29.77 in 0.5 mi West 8.1 mph 19.6 mph 0.01 in Fog , Rain Light Rain
10:21 AM 39.2 °F 33.6 °F 39.2 °F 100% 29.77 in 1.8 mi West 8.1 mph 20.7 mph 0.02 in Rain Light Rain
10:23 AM 39.2 °F 33.6 °F 39.2 °F 100% 29.78 in 3.0 mi West 8.1 mph 20.7 mph 0.02 in Rain Light Rain
10:25 AM 39.2 °F 34.2 °F 39.2 °F 100% 29.78 in 1.5 mi Variable 6.9 mph 20.7 mph 0.02 in Rain Light Rain
10:30 AM 39.2 °F 35.9 °F 39.2 °F 100% 29.78 in 0.2 mi Variable 4.6 mph - 0.02 in Fog Fog
10:44 AM 39.2 °F 32.0 °F 39.2 °F 100% 29.79 in 1.0 mi West 11.5 mph 23.0 mph 0.02 in   Overcast
10:46 AM 39.2 °F 33.0 °F 39.2 °F 100% 29.79 in 2.0 mi West 9.2 mph 23.0 mph 0.02 in   Overcast
10:48 AM 39.2 °F 32.5 °F 39.2 °F 100% 29.79 in 3.0 mi West 10.4 mph 23.0 mph 0.02 in   Overcast
10:56 AM 39.9 °F 33.9 °F 39.9 °F 100% 29.81 in 7.0 mi West 9.2 mph 20.7 mph 0.02 in   Overcast
11:19 AM 39.2 °F 33.6 °F 39.2 °F 100% 29.80 in 9.0 mi West 8.1 mph 20.7 mph N/A   Overcast
11:33 AM 41.0 °F 35.8 °F 39.2 °F 93% 29.81 in 10.0 mi West 8.1 mph - N/A   Overcast
11:54 AM 39.2 °F 33.6 °F 39.2 °F 100% 29.82 in 5.0 mi WSW 8.1 mph 21.9 mph 0.00 in Rain Light Rain
11:56 AM 41.0 °F 34.7 °F 39.9 °F 96% 29.84 in 5.0 mi West 10.4 mph 21.9 mph 0.00 in Rain Light Rain
12:24 PM 41.0 °F 35.2 °F 39.2 °F 93% 29.84 in 9.0 mi West 9.2 mph 23.0 mph 0.00 in   Overcast
12:56 PM 41.0 °F 34.7 °F 39.0 °F 93% 29.87 in 9.0 mi West 10.4 mph 21.9 mph 0.00 in Rain Light Rain
1:46 PM 41.0 °F 37.1 °F 39.2 °F 93% 29.86 in 4.0 mi Variable 5.8 mph 19.6 mph 0.04 in Rain Light Rain
1:53 PM 41.0 °F 38.0 °F 39.2 °F 93% 29.87 in 1.0 mi Variable 4.6 mph - 0.04 in Rain Light Rain
1:56 PM 41.0 °F 37.1 °F 41.0 °F 100% 29.89 in 0.5 mi Variable 5.8 mph - 0.04 in Fog , Rain Light Rain
1:59 PM 41.0 °F 37.1 °F 41.0 °F 100% 29.87 in 0.2 mi Variable 5.8 mph - 0.00 in Fog , Rain Light Rain
2:14 PM 41.0 °F 37.1 °F 41.0 °F 100% 29.88 in 0.2 mi Variable 5.8 mph - 0.00 in Fog , Rain Light Rain
2:23 PM 41.0 °F 38.0 °F 41.0 °F 100% 29.88 in 0.2 mi Variable 4.6 mph - 0.01 in Fog , Rain Light Rain
2:33 PM 41.0 °F 37.1 °F 41.0 °F 100% 29.88 in 0.2 mi Variable 5.8 mph - 0.03 in Fog , Rain Light Rain
2:40 PM 41.0 °F 38.0 °F 41.0 °F 100% 29.88 in 0.2 mi Variable 4.6 mph - 0.03 in Fog , Rain Light Rain
2:47 PM 41.0 °F 38.0 °F 41.0 °F 100% 29.89 in 0.5 mi Variable 4.6 mph - 0.04 in Fog , Rain Light Rain
2:53 PM 41.0 °F 34.7 °F 39.2 °F 93% 29.89 in 1.8 mi West 10.4 mph 20.7 mph 0.04 in   Overcast
2:56 PM 41.0 °F 34.3 °F 39.9 °F 96% 29.91 in 9.0 mi West 11.5 mph 20.7 mph 0.04 in   Overcast
3:14 PM 41.0 °F 35.8 °F 39.2 °F 93% 29.89 in 10.0 mi West 8.1 mph 27.6 mph N/A   Overcast
3:35 PM 41.0 °F 35.2 °F 39.2 °F 93% 29.90 in 4.0 mi West 9.2 mph 21.9 mph 0.00 in Rain Light Rain
3:56 PM 41.0 °F 35.8 °F 41.0 °F 100% 29.92 in 4.0 mi WSW 8.1 mph - 0.01 in   Overcast
4:03 PM 41.0 °F 36.4 °F 39.2 °F 93% 29.90 in 10.0 mi Variable 6.9 mph - N/A   Overcast
4:56 PM 42.1 °F 37.1 °F 39.9 °F 92% 29.94 in 10.0 mi WSW 8.1 mph - N/A   Overcast
5:31 PM 41.0 °F 35.8 °F 39.2 °F 93% 29.93 in 5.0 mi West 8.1 mph 19.6 mph 0.01 in Rain Light Rain
5:37 PM 41.0 °F 38.0 °F 39.2 °F 93% 29.94 in 3.0 mi Variable 4.6 mph 19.6 mph 0.02 in Rain Light Rain
5:40 PM 41.0 °F 35.2 °F 39.2 °F 93% 29.94 in 1.5 mi West 9.2 mph 19.6 mph 0.02 in Rain Light Rain
5:44 PM 39.2 °F 34.2 °F 39.2 °F 100% 29.94 in 0.8 mi Variable 6.9 mph 18.4 mph 0.05 in Rain Rain
5:49 PM 39.2 °F 32.5 °F 39.2 °F 100% 29.95 in 0.5 mi WSW 10.4 mph 20.7 mph 0.07 in Fog , Rain Rain
5:56 PM 39.9 °F 33.9 °F 39.0 °F 97% 29.98 in 0.2 mi West 9.2 mph 20.7 mph 0.09 in Fog , Rain Light Rain
6:03 PM 39.2 °F 33.6 °F 39.2 °F 100% 29.95 in 0.8 mi WSW 8.1 mph 18.4 mph 0.01 in Rain Light Rain
6:05 PM 39.2 °F 34.2 °F 39.2 °F 100% 29.95 in 1.0 mi Variable 6.9 mph - 0.01 in Rain Light Rain
6:09 PM 39.2 °F 34.2 °F 39.2 °F 100% 29.95 in 0.5 mi Variable 6.9 mph - 0.02 in Fog , Rain Rain
6:22 PM 39.2 °F 32.5 °F 39.2 °F 100% 29.94 in 1.5 mi West 10.4 mph 21.9 mph 0.06 in Rain Light Rain
6:24 PM 39.2 °F 32.5 °F 39.2 °F 100% 29.94 in 2.5 mi West 10.4 mph 26.5 mph 0.07 in Rain Light Rain
6:31 PM 39.2 °F 32.5 °F 39.2 °F 100% 29.94 in 5.0 mi West 10.4 mph 26.5 mph 0.08 in Rain Light Rain
6:56 PM 39.0 °F 29.3 °F 37.0 °F 93% 29.99 in 3.0 mi West 19.6 mph 36.8 mph 0.12 in Rain Light Rain
7:04 PM 39.2 °F 31.6 °F 37.4 °F 93% 29.96 in 3.0 mi West 12.7 mph 36.8 mph 0.03 in Rain Rain
7:14 PM 39.2 °F 35.9 °F 37.4 °F 93% 29.97 in 1.5 mi Variable 4.6 mph 21.9 mph 0.07 in Rain Light Rain
7:17 PM 39.2 °F 33.6 °F 39.2 °F 100% 29.97 in 0.8 mi West 8.1 mph 21.9 mph 0.07 in Rain Light Rain
7:31 PM 39.2 °F 33.6 °F 39.2 °F 100% 29.98 in 0.5 mi West 8.1 mph - 0.10 in Fog , Rain Rain
7:33 PM 39.2 °F 35.0 °F 39.2 °F 100% 29.98 in 0.2 mi Variable 5.8 mph - 0.11 in Fog , Rain Rain
7:47 PM 39.2 °F 34.2 °F 39.2 °F 100% 29.99 in 0.5 mi Variable 6.9 mph 19.6 mph 0.14 in Fog , Rain Light Rain
7:56 PM 39.0 °F 33.4 °F 39.0 °F 100% 30.03 in 0.5 mi West 8.1 mph 19.6 mph 0.14 in Fog , Rain Light Rain
8:27 PM 39.2 °F 34.2 °F 39.2 °F 100% 29.99 in 1.0 mi Variable 6.9 mph - 0.03 in Rain Light Rain
8:37 PM 39.2 °F 32.5 °F 37.4 °F 93% 29.99 in 2.5 mi West 10.4 mph 19.6 mph 0.03 in   Overcast
8:39 PM 39.2 °F 32.0 °F 37.4 °F 93% 29.99 in 6.0 mi West 11.5 mph 19.6 mph 0.03 in   Overcast
8:56 PM 39.0 °F 32.3 °F 37.9 °F 96% 30.04 in 9.0 mi West 10.4 mph 23.0 mph 0.03 in   Overcast
9:03 PM 37.4 °F 31.4 °F 37.4 °F 100% 30.00 in 8.0 mi West 8.1 mph 23.0 mph 0.00 in Rain Light Rain
9:11 PM 39.2 °F 35.0 °F 37.4 °F 93% 30.01 in 2.0 mi Variable 5.8 mph 21.9 mph 0.00 in Rain Light Rain
9:14 PM 39.2 °F 33.6 °F 37.4 °F 93% 30.01 in 1.2 mi West 8.1 mph 21.9 mph 0.00 in Rain Light Rain
9:22 PM 39.2 °F 34.2 °F 39.2 °F 100% 30.01 in 0.8 mi Variable 6.9 mph - 0.01 in Rain Light Rain
9:30 PM 39.2 °F 35.0 °F 39.2 °F 100% 30.01 in 0.2 mi Variable 5.8 mph - 0.02 in Fog , Rain Light Rain
9:40 PM 39.2 °F 34.2 °F 39.2 °F 100% 30.01 in 0.2 mi Variable 6.9 mph - 0.05 in Fog , Rain Rain
9:54 PM 37.4 °F 28.9 °F 37.4 °F 100% 30.02 in 1.0 mi West 13.8 mph 25.3 mph 0.09 in Rain Light Rain
9:56 PM 37.9 °F 30.5 °F 37.9 °F 100% 30.05 in 1.5 mi West 11.5 mph 25.3 mph 0.09 in Rain Light Rain
9:59 PM 37.4 °F 29.8 °F 37.4 °F 100% 30.02 in 3.0 mi West 11.5 mph 27.6 mph 0.00 in Rain Light Rain
10:42 PM 37.4 °F 34.9 °F 37.4 °F 100% 30.04 in 2.0 mi Variable 3.5 mph - 0.04 in   Overcast
10:44 PM 37.4 °F 34.9 °F 37.4 °F 100% 30.04 in 1.0 mi Variable 3.5 mph - 0.04 in   Overcast
10:51 PM 37.4 °F 30.3 °F 37.4 °F 100% 30.04 in 0.5 mi West 10.4 mph 19.6 mph 0.04 in Fog Fog
10:56 PM 37.9 °F 30.5 °F 37.0 °F 97% 30.08 in 1.0 mi West 11.5 mph 27.6 mph 0.04 in   Overcast
10:58 PM 37.4 °F 30.8 °F 37.4 °F 100% 30.04 in 3.0 mi West 9.2 mph 27.6 mph N/A   Overcast
11:06 PM 37.4 °F 29.3 °F 37.4 °F 100% 30.04 in 10.0 mi West 12.7 mph 25.3 mph N/A   Overcast
11:24 PM 37.4 °F 29.8 °F 37.4 °F 100% 30.04 in 10.0 mi West 11.5 mph 26.5 mph N/A   Overcast
11:35 PM 37.4 °F 30.8 °F 37.4 °F 100% 30.05 in 10.0 mi West 9.2 mph 24.2 mph N/A   Overcast
11:42 PM 37.4 °F 29.3 °F 37.4 °F 100% 30.05 in 10.0 mi West 12.7 mph 25.3 mph N/A   Overcast
11:54 PM 37.4 °F 32.1 °F 37.4 °F 100% 30.06 in 10.0 mi Variable 6.9 mph 24.2 mph N/A   Overcast
11:56 PM 37.9 °F 32.7 °F 37.9 °F 100% 30.09 in 10.0 mi Variable 6.9 mph 24.2 mph N/A   Overcast